Vertical_Velocity
-0 -2 -1 -1 -1 -2 -1 -3 -1 1 -2 -1 0 -1 1 -0 -2 -2 -9 7 8 2 8 1 -1 6 5 1 1 6 6 -5 -14 -2 13 2 -1 -0 -1 -2 3 -3 -10 -1 3
1 -0 -1 -0 0 -1 -1 -1 -1 -1 0 -0 -1 1 -2 -2 -3 -8 10 4 -0 -3 -3 3 -4 11 3 -1 -2 -2 -6 -12 -13 -1 -4 1 1 -3 -3 -1 -0 -2 -5 0 1
-1 -2 -3 -2 -1 -2 -2 -1 0 1 -1 -1 -1 -0 1 1 -6 5 3 3 4 7 1 9 0 12 12 6 -5 -9 -15 6 -5 2 5 8 -0 2 -3 -4 -2 3 2 3 3
-2 -2 -2 -1 -1 -1 -2 -2 -1 0 -0 -2 0 -0 -2 -0 -7 -1 4 1 3 10 -2 9 3 2 -6 -8 9 6 -0 -3 5 3 4 -3 13 -6 0 2 -4 -1 -1 -0 3
0 -2 -1 -1 1 -1 2 4 1 -2 -2 4 -0 -2 -2 -5 0 4 -4 0 4 3 0 1 8 12 -1 0 4 -1 4 6 1 2 2 9 -5 -1 -3 4 -1 -4 -3 -4 0
-3 -4 -2 -0 -0 -1 -2 -4 -1 1 -1 -2 1 4 -0 -14 -3 3 2 -1 1 5 -0 -1 -7 4 17 5 2 2 1 2 -1 7 6 2 -3 14 -3 1 -2 2 -0 -5 -2
-3 -5 -2 -2 -4 -8 -2 3 0 1 0 1 2 1 -6 9 10 -0 2 5 2 4 5 5 -1 8 3 11 12 9 2 1 10 -1 -0 4 -4 -3 -6 4 2 2 -1 4 4
-6 -5 -0 1 5 -0 2 3 -0 4 4 2 1 2 -13 8 3 10 7 6 6 9 9 9 12 12 7 9 3 -0 9 11 -5 3 1 4 -7 -2 -8 0 -3 2 4 -0 -3
2 -1 -2 -3 -3 -3 -5 -3 -1 -2 1 4 -1 0 -3 4 3 3 6 7 6 7 9 11 15 4 14 3 8 7 -3 -2 9 -4 3 -6 20 9 -1 -5 -0 -7 2 1 4
-2 -3 -5 -4 -7 -8 -7 -9 -4 -0 2 0 9 5 3 5 7 9 4 5 6 8 5 12 5 4 1 13 -25 -7 -4 -1 -5 5 -2 -4 4 -1 1 -1 0 4 4 -1 -1
-3 -4 -4 -7 -6 -6 -7 1 5 -3 14 7 5 1 1 5 -0 6 6 3 6 11 -1 32 1 -23 -4 -6 18 12 7 0 2 5 8 -3 -0 2 -1 3 -3 3 5 0 2
-6 -6 -5 -5 -7 -7 -9 -7 -4 -1 -16 6 6 6 3 3 -6 5 -5 7 1 -4 9 5 0 1 9 7 -4 -2 0 -6 16 2 2 2 -3 0 4 4 3 3 3 3 -2
-5 -6 -5 -6 -9 1 -9 -7 -3 -4 -3 3 1 -3 -11 -1 1 -0 8 7 -0 3 4 2 -3 18 24 11 13 11 -9 4 -0 -0 4 5 1 -1 -6 -0 2 4 2 -1 -1
-7 -9 -7 -6 -8 -4 -7 1 -3 -1 -0 -2 3 -2 -4 -5 9 11 2 6 6 -2 8 12 10 -5 17 10 10 9 8 5 3 2 -5 -3 -5 -2 -4 -0 -1 -1 -2 1 3
-7 -6 -6 -10 -4 -7 -9 -3 -6 -1 -0 1 -5 4 11 -3 -6 10 -4 13 8 0 -5 -3 5 11 0 -11 0 -13 9 10 12 2 -3 -2 8 -10 -4 -4 -2 -1 0 -1 -0
-6 -8 -5 3 1 -5 -6 -5 -3 -1 -4 -6 6 -7 -2 9 3 2 -6 -1 6 5 3 5 -4 -4 2 2 1 4 -5 -1 13 11 10 -11 -1 0 -3 -2 -3 -1 -1 -0 0
-4 -8 -5 -5 -22 -14 -8 -3 5 -9 2 -15 -18 -1 4 -5 -1 -5 -5 -6 -3 1 9 6 13 5 -4 6 9 6 -2 4 10 8 -4 8 13 4 3 2 2 2 2 2 3
-3 -5 -4 -7 -6 3 -4 -7 -17 0 -2 16 2 3 2 -8 3 -1 -3 -4 -3 -3 6 2 4 5 2 6 -2 5 -7 -2 -3 -3 -1 2 -3 -5 -1 1 0 0 -1 0 2
-6 -5 -6 -11 -5 -2 -1 -25 1 2 2 -4 0 -9 2 3 6 4 -1 -5 -7 -3 -3 -6 1 10 -0 1 3 0 8 -5 -6 -3 3 -5 1 -2 -1 2 -1 0 2 1 -0
-7 -3 -11 -5 -1 -1 -12 -9 3 3 3 3 2 1 -1 -8 -6 -3 -1 1 3 5 -5 0 3 5 16 -2 7 -2 -5 3 -1 1 1 3 -1 3 -0 -0 -0 -0 0 1 3
-3 -4 1 -2 5 -11 -17 -2 -0 1 -1 -3 -1 1 5 -4 3 1 4 -0 2 1 2 -2 0 -5 -1 -0 1 10 10 2 -1 -3 -0 -1 5 0 -0 1 1 0 1 2 2
-7 -10 -3 -5 -22 -14 -5 -7 2 4 4 0 5 -1 3 3 -3 1 10 2 0 -3 -4 -0 2 0 4 5 4 1 2 2 5 3 -2 0 4 0 1 2 -0 1 0 0 2
-5 -2 -3 -8 -25 -10 4 4 1 -3 -0 -4 2 1 7 1 5 2 4 7 -0 1 -4 -6 -2 0 -1 -2 -2 -5 -1 2 4 1 0 0 4 -2 0 1 -0 2 2 2 5
-7 -4 -3 -9 -1 -1 -9 -4 -8 4 1 -0 3 3 -1 -1 0 8 -3 -0 -2 0 0 1 -2 -1 3 1 -1 -2 -1 -1 0 2 -0 1 -2 -1 1 1 -1 -0 1 1 1
-6 1 -1 -11 -8 -1 0 0 -1 -12 3 -1 3 1 -1 -4 -2 -5 0 -1 0 -1 -3 -3 -1 -0 0 1 -1 -3 2 -2 -2 -0 4 -1 1 -2 -1 1 1 2 2 1 0
-6 -4 -2 -0 -1 2 -1 -4 -4 1 -2 -1 1 4 2 0 4 -6 1 0 0 1 -3 -0 1 -0 -1 -2 -1 -0 1 -4 -1 2 5 1 -0 1 -1 1 2 1 2 1 1
1 3 -1 -1 -3 -5 -6 -5 -4 -4 6 -2 -2 -0 2 1 1 0 0 -1 3 -2 -0 -2 -2 -3 2 -2 -5 3 -4 -1 2 6 2 4 2 2 -1 3 2 1 6 6 6
Height
3101 3097 3093 3090 3086 3082 3078 3073 3069 3066 3062 3059 3057 3055 3052 3050 3049 3048 3045 3055 3055 3054 3056 3056 3059 3062 3063 3064 3068 3070 3069 3068 3074 3075 3082 3079 3082 3087 3091 3093 3096 3099 3103 3106 3109
3098 3093 3088 3084 3080 3075 3071 3067 3062 3059 3055 3052 3050 3047 3045 3042 3040 3038 3044 3042 3044 3044 3046 3047 3049 3051 3052 3054 3056 3057 3055 3059 3066 3071 3074 3075 3079 3081 3085 3087 3090 3093 3097 3099 3103
3093 3088 3084 3079 3075 3070 3065 3061 3056 3053 3049 3045 3042 3039 3036 3034 3032 3032 3032 3032 3033 3034 3037 3041 3044 3044 3043 3044 3043 3044 3040 3053 3058 3064 3067 3069 3072 3075 3079 3082 3086 3089 3092 3094 3096
3089 3085 3079 3075 3070 3065 3061 3056 3052 3047 3043 3040 3036 3032 3029 3028 3028 3024 3024 3025 3025 3024 3026 3029 3030 3031 3034 3030 3035 3034 3037 3046 3053 3055 3058 3061 3067 3067 3071 3078 3080 3083 3087 3089 3092
3086 3080 3074 3068 3064 3059 3054 3050 3045 3039 3036 3032 3028 3024 3020 3018 3022 3015 3017 3016 3017 3017 3017 3018 3019 3023 3020 3023 3031 3026 3034 3036 3044 3046 3050 3055 3056 3062 3063 3070 3074 3078 3081 3085 3087
3080 3074 3067 3062 3057 3053 3048 3042 3036 3032 3026 3023 3020 3015 3009 3005 3010 3008 3006 3006 3007 3008 3009 3010 3010 3017 3018 3020 3020 3022 3027 3031 3036 3039 3043 3045 3049 3052 3055 3063 3066 3070 3075 3079 3082
3075 3069 3063 3057 3049 3043 3039 3033 3027 3022 3017 3011 3008 3003 2995 3001 2998 2996 2996 2995 2997 2998 2999 3003 3005 3009 3012 3015 3015 3021 3020 3024 3025 3032 3033 3039 3036 3036 3048 3054 3057 3062 3068 3071 3074
3068 3063 3059 3049 3040 3032 3028 3024 3015 3009 3004 2999 2994 2990 2980 2986 2985 2983 2983 2984 2985 2988 2990 2994 2997 3001 3002 3006 3008 3011 3016 3014 3018 3024 3028 3033 3014 3033 3038 3044 3048 3054 3059 3063 3067
3063 3054 3048 3042 3031 3022 3013 3009 3003 2996 2990 2985 2981 2976 2972 2972 2972 2970 2970 2973 2976 2980 2982 2985 2989 2989 2995 2997 3003 3000 2998 3004 3015 3015 3021 3020 3016 3027 3030 3034 3038 3045 3050 3055 3059
3055 3046 3039 3032 3023 3014 3004 2996 2989 2982 2977 2975 2973 2972 2969 2967 2966 2966 2966 2966 2969 2972 2976 2978 2979 2979 2981 2984 2973 2989 2994 2999 3002 3007 3010 3011 3010 3021 3023 3027 3031 3036 3040 3044 3049
3051 3041 3033 3024 3013 3003 2993 2983 2979 2975 2975 2968 2967 2962 2959 2958 2958 2960 2960 2961 2963 2967 2966 2968 2967 2960 2965 2970 2980 2988 2990 2992 2997 3000 3002 3003 3007 3013 3016 3019 3021 3026 3030 3035 3038
3048 3038 3029 3018 3009 2998 2987 2977 2969 2966 2960 2960 2958 2956 2954 2951 2949 2950 2952 2954 2955 2958 2963 2962 2952 2960 2969 2970 2975 2980 2983 2986 2991 2992 2996 2999 3000 3006 3008 3012 3015 3019 3024 3028 3031
3041 3032 3023 3013 3003 2995 2983 2975 2968 2964 2963 2960 2957 2955 2953 2952 2947 2945 2943 2941 2946 2951 2954 2953 2956 2958 2957 2960 2964 2967 2972 2980 2984 2986 2990 2993 2996 2997 2998 3003 3008 3012 3016 3021 3026
3036 3028 3017 3006 2998 2987 2981 2972 2967 2963 2963 2963 2960 2957 2954 2950 2947 2942 2937 2938 2941 2943 2949 2949 2952 2951 2951 2953 2958 2963 2967 2972 2975 2978 2983 2987 2984 2989 2992 2996 3000 3004 3009 3013 3018
3033 3022 3011 3000 2994 2986 2979 2971 2966 2963 2965 2968 2962 2958 2955 2951 2949 2944 2936 2934 2936 2937 2941 2942 2942 2945 2946 2949 2956 2959 2965 2968 2970 2974 2978 2982 2986 2983 2985 2987 2992 2996 3001 3006 3011
3028 3018 3009 3005 2995 2986 2980 2973 2969 2969 2972 2968 2965 2959 2956 2953 2948 2943 2939 2936 2934 2933 2933 2935 2937 2940 2942 2947 2953 2956 2960 2964 2968 2970 2970 2971 2978 2974 2976 2978 2982 2988 2992 2997 3002
3027 3018 3008 3001 2993 2988 2982 2977 2976 2978 2980 2973 2963 2960 2957 2952 2948 2944 2941 2935 2935 2932 2931 2932 2934 2935 2937 2940 2945 2949 2955 2960 2963 2963 2959 2964 2972 2968 2969 2971 2974 2979 2984 2988 2994
3027 3019 3012 3002 2997 2992 2986 2980 2978 2985 2981 2974 2968 2962 2959 2954 2951 2948 2945 2942 2939 2937 2934 2933 2933 2933 2935 2937 2938 2942 2947 2946 2943 2948 2953 2962 2962 2961 2966 2968 2970 2973 2978 2983 2988
3027 3020 3013 3003 2997 2992 2988 2982 2989 2986 2982 2976 2970 2964 2962 2959 2955 2951 2948 2947 2944 2941 2940 2937 2935 2934 2933 2934 2938 2939 2941 2945 2946 2948 2949 2955 2957 2959 2960 2964 2967 2970 2974 2979 2984
3027 3020 3011 3004 2999 2994 2988 2989 2991 2987 2982 2977 2974 2970 2965 2961 2957 2954 2952 2951 2949 2945 2942 2941 2938 2935 2934 2935 2937 2937 2940 2943 2943 2942 2942 2951 2955 2955 2956 2960 2964 2968 2972 2977 2982
3027 3018 3013 3007 3002 2995 2991 2993 2990 2987 2983 2979 2975 2972 2969 2963 2959 2957 2955 2953 2949 2946 2944 2942 2941 2938 2936 2938 2937 2938 2938 2940 2941 2942 2938 2944 2952 2953 2955 2958 2962 2967 2971 2975 2981
3025 3018 3013 3007 3001 2996 2996 2993 2990 2986 2983 2979 2977 2973 2968 2962 2959 2957 2956 2954 2952 2949 2946 2943 2940 2940 2941 2941 2940 2939 2939 2940 2940 2945 2945 2946 2953 2952 2954 2957 2960 2965 2970 2975 2980
3024 3019 3014 3007 3000 2999 2998 2996 2991 2986 2982 2979 2977 2974 2970 2965 2962 2959 2957 2955 2954 2951 2950 2949 2947 2945 2943 2945 2943 2942 2942 2942 2941 2943 2945 2944 2953 2952 2953 2956 2960 2964 2969 2975 2980
3025 3020 3015 3008 3006 3003 2999 2996 2991 2989 2985 2982 2979 2974 2970 2967 2964 2962 2959 2957 2955 2954 2952 2951 2950 2950 2952 2952 2950 2948 2945 2944 2943 2945 2946 2948 2950 2952 2954 2956 2960 2964 2970 2975 2979
3027 3022 3016 3012 3008 3006 3003 2999 2993 2988 2987 2983 2980 2976 2973 2969 2965 2963 2961 2958 2957 2955 2953 2952 2952 2951 2951 2950 2950 2950 2949 2948 2947 2947 2949 2950 2951 2952 2955 2958 2961 2965 2969 2974 2978
3029 3024 3018 3015 3011 3008 3003 3000 2996 2992 2989 2985 2982 2979 2975 2972 2969 2964 2962 2960 2959 2956 2954 2952 2952 2952 2952 2952 2952 2952 2950 2949 2951 2950 2950 2950 2952 2954 2957 2961 2963 2967 2971 2975 2979
3031 3025 3020 3017 3013 3009 3005 3002 2997 2992 2990 2986 2983 2979 2976 2973 2970 2968 2965 2963 2961 2958 2956 2954 2954 2953 2954 2953 2952 2952 2951 2951 2952 2952 2951 2953 2954 2955 2960 2963 2966 2970 2974 2978 2982